Weather History for Clinton-Sherman, OK

Change the Weather History Date:

Friday, July 6, 2012

  Actual Average Record
Temperature  
Mean Temperature 88 °F -  
Max Temperature 100 °F 92 °F 105 °F (2011)
Min Temperature 75 °F 69 °F 62 °F (1997)
Cooling Degree Days 22    
Growing Degree Days 38 (Base 50)    
Moisture  
Dew Point 57 °F    
Average Humidity 37    
Maximum Humidity 60    
Minimum Humidity 21    
Precipitation  
Precipitation 0.00 in - - ()
Sea Level Pressure  
Sea Level Pressure 29.95 in    
Wind  
Wind Speed 11 mph (South)    
Max Wind Speed 16 mph    
Max Gust Speed 23 mph    
Visibility 10 miles    
Events      
Averages and records for this station are not official NWS values.
T = Trace of Precipitation, MM = Missing Value Source: NWS Daily Summary

Daily Weather History Graph

Daily Weather History Graph

Search for Another Location

Airport:

Trip Planner

Search our weather history database for the weather conditions in past years. The results will help you decide how hot, cold, wet, or windy it might be!

Date:

Astronomy

Jul. 06, 2012 Rise Set
Actual Time 6:28 AM CDT 8:54 PM CDT
Civil Twilight 5:58 AM CDT 9:24 PM CDT
Nautical Twilight 5:22 AM CDT 10:00 PM CDT
Astronomical Twilight 4:42 AM CDT 10:40 PM CDT
Moon 10:54 PM CDT (7/6) 9:41 AM CDT (7/6)
Length of Visible Light 15h 25m
Length of Day
14h 26m
Waning Gibbous, 89% of the Moon is Illuminated
Jul 6
Waning Gibbous
Jul 10
Last Quarter
Jul 18
New
Jul 26
First Quarter
Aug 1
Full

Hourly Weather History & Observations

Time (CDT) Temp. Heat Index Dew Point Humidity Pressure Visibility Wind Dir Wind Speed Gust Speed Precip Events Conditions
12:53 AM 84.0 °F 83.8 °F 59.0 °F 43% 29.94 in 10.0 mi SSE 13.8 mph - N/A   Clear
1:53 AM 81.0 °F 81.3 °F 59.0 °F 47% 29.94 in 10.0 mi South 11.5 mph - N/A   Clear
2:53 AM 80.1 °F 80.7 °F 59.0 °F 48% 29.94 in 10.0 mi South 11.5 mph - N/A   Clear
3:53 AM 78.1 °F - 59.0 °F 52% 29.94 in 10.0 mi South 11.5 mph - N/A   Clear
4:53 AM 77.0 °F - 59.0 °F 54% 29.94 in 10.0 mi South 10.4 mph - N/A   Clear
5:53 AM 75.9 °F - 59.0 °F 56% 29.96 in 10.0 mi South 10.4 mph - N/A   Clear
6:53 AM 75.0 °F - 60.1 °F 60% 29.97 in 10.0 mi South 8.1 mph - N/A   Clear
7:53 AM 79.0 °F - 60.1 °F 52% 29.98 in 10.0 mi South 6.9 mph - N/A   Clear
8:53 AM 82.9 °F 83.2 °F 60.1 °F 46% 29.99 in 10.0 mi SSW 11.5 mph - N/A   Clear
10:53 AM 93.0 °F 91.4 °F 55.9 °F 29% 29.98 in 10.0 mi SSW 16.1 mph 23.0 mph N/A   Clear
11:53 AM 95.0 °F 93.7 °F 57.0 °F 28% 29.98 in 10.0 mi SSW 11.5 mph - N/A   Clear
12:53 PM 95.0 °F 93.7 °F 57.0 °F 28% 29.98 in 10.0 mi SSW 11.5 mph 20.7 mph N/A   Partly Cloudy
1:53 PM 97.0 °F 95.3 °F 55.9 °F 25% 29.97 in 10.0 mi South 12.7 mph - N/A   Clear
2:53 PM 98.1 °F 96.4 °F 55.9 °F 24% 29.95 in 10.0 mi South 9.2 mph 21.9 mph N/A   Partly Cloudy
3:53 PM 100.0 °F 98.3 °F 55.0 °F 22% 29.94 in 10.0 mi South 13.8 mph 20.7 mph N/A   Partly Cloudy
5:53 PM 99.0 °F - 52.0 °F 21% 29.91 in 10.0 mi SSW 10.4 mph - N/A   Partly Cloudy
6:53 PM 99.0 °F - 52.0 °F 21% 29.90 in 10.0 mi South 11.5 mph 16.1 mph N/A   Clear
7:53 PM 97.0 °F - 52.0 °F 22% 29.90 in 10.0 mi South 10.4 mph - N/A   Clear
8:53 PM 90.0 °F 87.7 °F 54.0 °F 29% 29.91 in 10.0 mi SSE 6.9 mph - N/A   Clear
9:53 PM 84.0 °F 82.6 °F 54.0 °F 35% 29.94 in 10.0 mi SSE 4.6 mph - N/A   Clear
10:53 PM 84.0 °F 83.0 °F 55.9 °F 38% 29.96 in 10.0 mi SSE 6.9 mph - N/A   Clear